Location: New Mesquite
(33.1168°N, 96.4336°W)
Time: 05:36:21
(UTC+00:00)

CZ-2C R/B - Pass Details

Date: 07 July 2022
Orbit: 783 x 871 km, 98.2° (Epoch: 11 August)

Event Time Altitude Azimuth Distance (km) Brightness Sun altitude
Rises 10:25:57 0° 150° (SSE) 3,409 5.8 -11.0°
Reaches altitude 10° 10:28:22 10° 145° (SE) 2,486 5.1 -10.6°
Maximum altitude 10:33:39 47° 73° (ENE) 1,133 3.9 -9.7°
Drops below altitude 10° 10:39:01 10° 1° (N) 2,522 5.7 -8.8°
Sets 10:41:29 0° 355° (N) 3,463 6.3 -8.4°
